Regional Weather Roundup
Issued by NWS

Home | Current Version | Previous Version | Text Only | Print | Product List | Glossary On
Versions: 1 2 3 4 5 6 7 8 9 10 11 12 13 14 15 16 17 18 19 20 21 22 23 24 25 26 27 28 29 30 31 32 33 34 35 36 37 38 39 40 41 42 43 44 45 46 47 48 49 50
029
ASUS44 KLIX 041710
RWRLA
LOUISIANA WEATHER ROUNDUP
NATIONAL WEATHER SERVICE NEW ORLEANS LA
1100 AM CST WED MAR 04 2015

NOTE: "FAIR" INDICATES FEW OR NO CLOUDS BELOW 12,000 FEET WITH NO
      SIGNIFICANT WEATHER AND/OR OBSTRUCTIONS TO VISIBILITY.
      SKY/WX - SKY CONDITION AND SIGNIFICANT WEATHER.
      TMP - AIR TEMPERATURE.    DP   - DEWPOINT TEMPERATURE.
      RH  - RELATIVE HUMIDITY.  PRES - PRESSURE.
      HX  - HEAT INDEX.         WCI  - WIND CHILL INDEX.

*  THESE STATIONS ARE NOT NWS OR FAA STATIONS AND ARE NOT UNDER
   NWS QUALITY CONTROL.

LAZ040-048-061>063-065-066-069-041800-
SOUTHEAST LOUISIANA

CITY           SKY/WX    TMP DP  RH WIND       PRES   REMARKS
N.O. AUDUBON     N/A     79  70  73 MISG        N/A
N.O. INTL ARPT MOSUNNY   79  68  69 S13       29.99F
N.O. LAKEFRONT MOSUNNY   80  67  64 S14       30.00F
SLIDELL        MOSUNNY   76  68  76 S13       30.00F
BATON ROUGE    CLOUDY    77  69  76 S14G28    29.98
BOOTHVILLE     MOSUNNY   76  70  82 S14       30.02F
BELLE CHASSE   PTSUNNY   80  68  66 S12       29.99F
BOGALUSA*        N/A     78  68  71 SW9       30.01F
GALLIANO*      MOSUNNY   82  70  66 SE12G17   30.00F
NEW ROADS*     CLOUDY    77  67  71 S12G17    29.97F
GONZALES*      PTSUNNY   77  70  79 S9        29.99S
HAMMOND*       PTSUNNY   77  66  69 S8        30.01F
HOUMA*         MOSUNNY   81  70  69 S13       29.99F
PORT FOURCHON* MOSUNNY   77  70  78 S8        30.04F

$$

LAZ041-044-053-054-041800-
SOUTHWEST LOUISIANA

CITY           SKY/WX    TMP DP  RH WIND       PRES   REMARKS
LAKE CHARLES   PTSUNNY   76  69  79 S15G22    29.93F
LAFAYETTE      PTSUNNY   78  67  68 S18G25    29.96F
PATTERSON      MOSUNNY   79  66  65 S15G23    29.99S
SALT POINT       N/A     77  70  79 S8        29.97S
NEW IBERIA     MOSUNNY   79  69  71 S15G25    29.97F
CHENAULT AIRPK NOT AVBL

$$

LAZ027-028-041800-
CENTRAL LOUISIANA

CITY           SKY/WX    TMP DP  RH WIND       PRES   REMARKS
FORT POLK      NOT AVBL
ALEXANDRIA INT CLOUDY    74  67  78 S10       29.93F
ALEXANDRIA     CLOUDY    77  65  66 SW10      29.95S

$$

LAZ001-002-041800-
NORTHWEST LOUISIANA

CITY           SKY/WX    TMP DP  RH WIND       PRES   REMARKS
SHREVEPORT     CLOUDY    73  66  78 S13       29.87F
BARKSDALE AFB  NOT AVBL
DTN SHREVEPORT CLOUDY    72  65  78 S12       29.87F

$$

LAZ014-016-041800-
NORTHEAST LOUISIANA

CITY           SKY/WX    TMP DP  RH WIND       PRES   REMARKS
MONROE         CLOUDY    76  65  68 SW17G30   29.91S
TALLULAH       PTSUNNY   76  66  71 S14G21    29.93F

$$




USA.gov is the U.S. government's official web portal to all federal, state and local government web resources and services.